Estación de Manuel Montt
Ultimos registro cada 15 minutos 29
| N° | Estación | Fecha / Hora | Temperatura | Humedad | Lluvia | Velocidad | Dirección | Radiación | Presion |
| 29 | Manuel Montt | 09-05-2026 07:00 | 4,1 | 88 | 0 | 0 | 77 | 0 | 1015,1 |
| 28 | Manuel Montt | 09-05-2026 06:45 | 4,3 | 89 | 0 | 0 | 77 | 0 | 1014,9 |
| 27 | Manuel Montt | 09-05-2026 06:30 | 4,1 | 89 | 0 | 0,9 | 87 | 0 | 1014,8 |
| 26 | Manuel Montt | 09-05-2026 06:15 | 4,1 | 89 | 0 | 0 | 87 | 0 | 1015 |
| 25 | Manuel Montt | 09-05-2026 06:00 | 4 | 88 | 0 | 0 | 86 | 0 | 1015 |
| 24 | Manuel Montt | 09-05-2026 05:45 | 4,3 | 88 | 0 | 0 | 86 | 0 | 1014,8 |
| 23 | Manuel Montt | 09-05-2026 05:30 | 4,3 | 88 | 0 | 0 | 86 | 0 | 1014,7 |
| 22 | Manuel Montt | 09-05-2026 05:15 | 4,6 | 86 | 0 | 0 | 86 | 0 | 1014,9 |
| 21 | Manuel Montt | 09-05-2026 05:00 | 4,9 | 86 | 0 | 0 | 86 | 0 | 1014,7 |
| 20 | Manuel Montt | 09-05-2026 04:45 | 5,4 | 86 | 0 | 0 | 86 | 0 | 1014,7 |
| 19 | Manuel Montt | 09-05-2026 04:30 | 5,6 | 87 | 0 | 0 | 87 | 0 | 1014,7 |
| 18 | Manuel Montt | 09-05-2026 04:15 | 5,4 | 89 | 0 | 0 | 87 | 0 | 1014,7 |
| 17 | Manuel Montt | 09-05-2026 04:00 | 5,2 | 88 | 0 | 0 | 87 | 0 | 1014,8 |
| 16 | Manuel Montt | 09-05-2026 03:45 | 5,2 | 87 | 0 | 0,9 | 43 | 0 | 1014,9 |
| 15 | Manuel Montt | 09-05-2026 03:30 | 5,3 | 89 | 0 | 0 | 252 | 0 | 1015 |
| 14 | Manuel Montt | 09-05-2026 03:15 | 5,2 | 89 | 0 | 0 | 252 | 0 | 1015 |
| 13 | Manuel Montt | 09-05-2026 03:00 | 4,9 | 90 | 0 | 0 | 252 | 0 | 1015,1 |
| 12 | Manuel Montt | 09-05-2026 02:45 | 4,7 | 89 | 0 | 0 | 252 | 0 | 1015,2 |
| 11 | Manuel Montt | 09-05-2026 02:30 | 4,7 | 88 | 0 | 0 | 252 | 0 | 1015,1 |
| 10 | Manuel Montt | 09-05-2026 02:15 | 4,9 | 87 | 0 | 0 | 252 | 0 | 1015,3 |
| 9 | Manuel Montt | 09-05-2026 02:00 | 5,2 | 87 | 0 | 0 | 252 | 0 | 1015,4 |
| 8 | Manuel Montt | 09-05-2026 01:45 | 5,6 | 87 | 0 | 0 | 252 | 0 | 1015,6 |
| 7 | Manuel Montt | 09-05-2026 01:30 | 5,6 | 88 | 0 | 0 | 252 | 0 | 1015,6 |
| 6 | Manuel Montt | 09-05-2026 01:15 | 5,7 | 86 | 0 | 0 | 252 | 0 | 1015,7 |
| 5 | Manuel Montt | 09-05-2026 01:00 | 6,1 | 86 | 0 | 0 | 252 | 0 | 1016 |
| 4 | Manuel Montt | 09-05-2026 00:45 | 6,1 | 86 | 0 | 0 | 252 | 0 | 1016,2 |
| 3 | Manuel Montt | 09-05-2026 00:30 | 6,3 | 86 | 0 | 0 | 252 | 0 | 1016,1 |
| 2 | Manuel Montt | 09-05-2026 00:15 | 6,3 | 86 | 0 | 0 | 252 | 0 | 1016,2 |
| 1 | Manuel Montt | 09-05-2026 00:00 | 6,3 | 84 | 0 | 0 | 285 | 0 | 1016,5 |